DW7259 Weather Reports


Display with metric or nautical units.
time (UTC)temp
F
wind
direction
speed
MPH
gust
MPH
rain 1hr
in
rain 24hr
in
rain mn
in
humidity
%
barometer
mb
20260507023006 72 211 0.0 5.0 0.00 0.00 0.00 26 1008.6
20260507021501 72 211 1.0 6.0 0.00 0.00 0.00 23 1008.6
20260507020000 73 211 1.0 5.0 0.00 0.00 0.00 24 1008.6
20260507014621 73 211 1.0 6.0 0.00 0.00 0.00 24 1008.5
20260507013059 73 211 1.0 6.0 0.00 0.00 0.00 24 1008.5
20260507011608 74 211 0.0 3.0 0.00 0.00 0.00 23 1008.6
20260507010112 74 211 1.0 5.0 0.00 0.00 0.00 23 1008.6
20260507004614 74 211 2.0 5.0 0.00 0.00 0.00 21 1008.5
20260507003059 74 211 0.0 5.0 0.00 0.00 0.00 22 1008.5
20260507001558 75 211 0.0 8.0 0.00 0.00 0.00 22 1008.5
20260507000057 75 214 1.0 5.0 0.00 0.00 0.00 22 1008.5
20260506234556 76 214 3.0 8.0 0.00 0.00 0.00 21 1008.6
20260506233058 79 360 1.0 9.0 0.00 0.00 0.00 20 1008.6
20260506231558 78 221 1.0 6.0 0.00 0.00 0.00 21 1008.8
20260506230054 78 221 1.0 7.0 0.00 0.00 0.00 19 1008.9
20260506224554 78 221 0.0 7.0 0.00 0.00 0.00 19 1009.1
20260506223051 78 221 3.0 7.0 0.00 0.00 0.00 18 1009.4
20260506221550 76 221 3.0 7.0 0.00 0.00 0.00 21 1009.6
20260506220050 77 221 2.0 7.0 0.00 0.00 0.00 18 1010.1
20260506214600 78 221 1.0 8.0 0.00 0.00 0.00 18 1010.3
20260506213045 77 221 2.0 8.0 0.00 0.00 0.00 20 1010.4
20260506211544 77 222 3.0 8.0 0.00 0.00 0.00 21 1010.5
20260506210042 76 222 1.0 7.0 0.00 0.00 0.00 21 1010.6
20260506204548 76 222 1.0 10.0 0.00 0.00 0.00 22 1010.8
20260506203038 75 229 0.0 7.0 0.00 0.00 0.00 24 1010.9
20260506201536 74 229 2.0 14.0 0.00 0.00 0.00 20 1011.1
20260506200034 74 223 3.0 10.0 0.00 0.00 0.00 22 1011.3
20260506194533 74 213 2.0 7.0 0.00 0.00 0.00 25 1011.5
20260506193029 74 212 3.0 8.0 0.00 0.00 0.00 24 1011.5
20260506191527 73 217 4.0 9.0 0.00 0.00 0.00 25 1011.5
20260506190026 72 213 2.0 7.0 0.00 0.00 0.00 27 1011.5
20260506184521 72 213 3.0 8.0 0.00 0.00 0.00 29 1011.7
20260506183015 70 206 1.0 7.0 0.00 0.00 0.00 31 1011.9
20260506181515 69 205 0.0 8.0 0.00 0.00 0.00 35 1011.8
20260506180009 69 186 2.0 7.0 0.00 0.00 0.00 36 1012.0
20260506174504 69 173 1.0 6.0 0.00 0.00 0.00 36 1012.1
20260506173135 67 173 0.0 6.0 0.00 0.00 0.00 38 1012.1
20260506171556 66 173 0.0 4.0 0.00 0.00 0.00 40 1012.1
20260506170052 66 173 3.0 8.0 0.00 0.00 0.00 40 1012.1
20260506164548 65 173 2.0 7.0 0.00 0.00 0.00 46 1012.1
20260506163044 64 173 3.0 6.0 0.00 0.00 0.00 51 1012.0
20260506161540 63 173 1.0 5.0 0.00 0.00 0.00 55 1012.1
20260506160036 62 173 2.0 5.0 0.00 0.00 0.00 56 1012.0
20260506154530 60 173 1.0 5.0 0.00 0.00 0.00 60 1012.0
20260506153025 58 173 1.0 4.0 0.00 0.00 0.00 63 1012.0
20260506151523 56 173 1.0 3.0 0.00 0.00 0.00 68 1012.0
20260506150019 55 173 0.0 3.0 0.00 0.00 0.00 70 1012.0
20260506144521 53 173 0.0 2.0 0.00 0.00 0.00 73 1011.9
20260506143014 52 173 0.0 1.0 0.00 0.00 0.00 74 1011.8
20260506141513 51 173 0.0 1.0 0.00 0.00 0.00 77 1011.7
20260506140010 51 173 0.0 1.0 0.00 0.00 0.00 76 1011.6
20260506134509 50 173 0.0 5.0 0.00 0.00 0.00 77 1011.3
20260506133005 49 173 0.0 2.0 0.00 0.00 0.00 78 1011.1
20260506131506 48 173 0.0 3.0 0.00 0.00 0.00 78 1010.9
20260506130100 48 173 0.0 2.0 0.00 0.00 0.00 77 1010.6
20260506124557 49 173 0.0 0.0 0.00 0.00 0.00 76 1010.5
20260506123053 50 173 0.0 3.0 0.00 0.00 0.00 75 1010.3
20260506121552 50 173 0.0 2.0 0.00 0.00 0.00 74 1010.1
20260506120049 50 173 0.0 4.0 0.00 0.00 0.00 74 1009.9
20260506114548 51 173 0.0 0.0 0.00 0.00 0.00 73 1009.7
20260506113044 52 173 0.0 0.0 0.00 0.00 0.00 72 1009.6
20260506111542 52 173 0.0 0.0 0.00 0.00 0.00 71 1009.3
20260506110043 52 173 0.0 6.0 0.00 0.00 0.00 71 1009.2
20260506104542 52 173 0.0 3.0 0.00 0.00 0.00 71 1008.9
20260506103037 52 173 0.0 4.0 0.00 0.00 0.00 70 1008.8
20260506101536 52 360 0.0 0.0 0.00 0.00 0.00 66 1008.6
20260506100031 53 360 0.0 0.0 0.00 0.00 0.00 64 1008.6
20260506094529 54 360 0.0 1.0 0.00 0.00 0.00 63 1008.5
20260506093033 55 360 0.0 3.0 0.00 0.00 0.00 62 1008.4
20260506091527 55 360 0.0 2.0 0.00 0.00 0.00 60 1008.2
20260506090027 55 360 0.0 0.0 0.00 0.00 0.00 62 1008.1
20260506084533 55 360 0.0 0.0 0.00 0.00 0.00 62 1008.1
20260506083022 54 360 0.0 2.0 0.00 0.00 0.00 61 1008.0
20260506081520 54 360 0.0 0.0 0.00 0.00 0.00 60 1008.0
20260506073011 56 360 0.0 0.0 0.00 0.00 0.00 56 1007.7
20260506071507 58 360 0.0 0.0 0.00 0.00 0.00 53 1007.7
20260506061502 59 269 0.0 3.0 0.00 0.00 0.00 51 1007.1
20260506050109 63 360 1.0 3.0 0.00 0.00 0.00 45 1006.3
20260506044602 63 360 0.0 5.0 0.00 0.00 0.00 47 1006.1
20260506043102 63 32 1.0 4.0 0.00 0.00 0.00 46 1006.1
20260506041558 63 56 1.0 5.0 0.00 0.00 0.00 49 1006.0
20260506040057 64 360 1.0 6.0 0.00 0.00 0.00 47 1005.8
20260506034603 64 360 0.0 6.0 0.00 0.06 0.00 46 1005.4
20260506033114 64 360 1.0 8.0 0.00 0.06 0.00 47 1005.1
20260506031556 65 360 3.0 13.0 0.00 0.06 0.00 47 1005.0
20260506024613 65 360 1.0 6.0 0.00 0.09 0.00 45 1004.9